Location: Unspecified
(0.0000°N, 0.0000°E)
Time: 18:44:34
(UTC+00:00)

STARLINK-5741 - Pass Details

Date: 22 January 2026
Orbit: 558 x 560 km, 43.0° (Epoch: 9 February)

Event Time Altitude Azimuth Distance (km) Brightness Sun altitude
Rises 19:56:47 0° 313° (NW) 2,720 7.5 -24.7°
Reaches altitude 10° 19:59:03 10° 311° (NW) 1,828 6.6 -25.2°
Enters shadow 20:02:06 46° 298° (WNW) 743 4.4 -25.9°
